This is the latest recevied weather packets stored in our database for station/object HG5CJW-10. If no packets are shown the sender has not sent any weather packets the latest 10 day(s).
| Time | Temp. | Humidity | Pressure | Rain* | Wind** | Luminosity | Snow |
|---|---|---|---|---|---|---|---|
| 1777620927 | 8.89° C | 45% | 1045.6 hPa | - | - | - | - |
| 1777620027 | 8.33° C | 45% | 1045.6 hPa | - | - | - | - |
| 1777619127 | 8.33° C | 46% | 1045.6 hPa | - | - | - | - |
| 1777618227 | 7.78° C | 46% | 1045.7 hPa | - | - | - | - |
| 1777617327 | 7.78° C | 46% | 1045.7 hPa | - | - | - | - |
| 1777616427 | 7.78° C | 47% | 1045.7 hPa | - | - | - | - |
| 1777613727 | 7.22° C | 47% | 1045.1 hPa | - | - | - | - |
| 1777609227 | 7.22° C | 47% | 1045.1 hPa | - | - | - | - |
| 1777605621 | 7.78° C | 46% | 1045.2 hPa | - | - | - | - |
| 1777604721 | 7.78° C | 46% | 1045.2 hPa | - | - | - | - |
| 1777603825 | 7.78° C | 46% | 1045.1 hPa | - | - | - | - |
| 1777602020 | 8.33° C | 46% | 1045 hPa | - | - | - | - |
| 1777601120 | 8.33° C | 46% | 1045 hPa | - | - | - | - |
| 1777600220 | 8.33° C | 46% | 1044.8 hPa | - | - | - | - |
| 1777599316 | 8.33° C | 46% | 1045.3 hPa | - | - | - | - |
| 1777598416 | 8.33° C | 45% | 1045.3 hPa | - | - | - | - |
| 1777596616 | 8.89° C | 45% | 1045.2 hPa | - | - | - | - |
| 1777595715 | 8.89° C | 45% | 1045.1 hPa | - | - | - | - |
| 1777594815 | 8.89° C | 45% | 1045.2 hPa | - | - | - | - |
| 1777593015 | 9.44° C | 44% | 1045.1 hPa | - | - | - | - |
| 1777592114 | 9.44° C | 44% | 1045.2 hPa | - | - | - | - |
| 1777591214 | 10° C | 44% | 1045.2 hPa | - | - | - | - |
| 1777589414 | 10° C | 43% | 1045.4 hPa | - | - | - | - |
| 1777584009 | 11.67° C | 42% | 1045.3 hPa | - | - | - | - |
| 1777583108 | 11.67° C | 42% | 1045.1 hPa | - | - | - | - |
* Rain since midnight (hover to see other rain measurements)
** Current wind speed in m/s (hover to see current wind gust speed)